• Processing (Info)

  • MPEC 2015-R63 : 2015 RQ35

    The following Minor Planet Electronic Circular may be linked-to from your own Web pages, but must not otherwise be redistributed electronically.

    A form allowing access to any MPEC is at the bottom of this page.


    Read MPEC 2015-R62 Read MPEC 2015-R64


    M.P.E.C. 2015-R63                                Issued 2015 Sept. 12, 14:29 UT
    
         The Minor Planet Electronic Circulars contain information on unusual
             minor planets and routine data on comets.  They are published
        on behalf of Division F of the International Astronomical Union by the
              Minor Planet Center, Smithsonian Astrophysical Observatory,
                              Cambridge, MA 02138, U.S.A.
    
                 Prepared using the Tamkin Foundation Computer Network
    
                                  MPC@CFA.HARVARD.EDU
                URL https://www.minorplanetcenter.net/    ISSN 1523-6714
    
                                       2015 RQ35
    
    Observations:
         K15R35Q* C2015 09 10.49155 00 55 55.085+01 50 05.12         21.5 wLER063F51
         K15R35Q  C2015 09 10.50381 00 55 56.550+01 49 27.78         21.2 wLER063F51
         K15R35Q  C2015 09 10.54227 00 56 01.154+01 47 30.05         21.2 wLER063F51
         K15R35Q KC2015 09 11.32305700 57 54.55 +01 07 55.9          21.5 VuER063H21
         K15R35Q KC2015 09 11.33391600 57 55.85 +01 07 23.4          20.8 VuER063H21
         K15R35Q KC2015 09 11.34433000 57 57.06 +01 06 52.8          21.6 VuER063H21
         K15R35Q KC2015 09 12.31873901 00 10.30 +00 19 13.5          21.1 VuER063H21
         K15R35Q KC2015 09 12.32376901 00 10.85 +00 18 58.8          21.2 VuER063H21
         K15R35Q KC2015 09 12.32908301 00 11.46 +00 18 44.1          20.8 VuER063H21
    
    Observer details:
    F51 Pan-STARRS 1, Haleakala.  Observers B. Gibson, T. Goggia, N. Primak,
        A. Schultz, M. Willman.  Measurers K. Chambers, S. Chastel, L. Denneau,
        H. Flewelling, M. Huber, E. Lilly, E. Magnier, R. Wainscoat, C. Waters,
        R. Weryk.  1.8-m Ritchey-Chretien + CCD.
    H21 Astronomical Research Observatory, Westfield.  Observers R. Holmes,
        T. Linder.  Measurers S. Foglia, L. Buzzi, T. Linder, R. Holmes.  0.76-m
        f/3.0 astrograph + CCD, 1.3-m f/4.0 astrograph + CCD.
    
    Orbital elements:
    2015 RQ35                                                Earth MOID = 0.0862 AU
    Epoch 2015 June 27.0 TT = JDT 2457200.5                 MPC
    M 337.04572              (2000.0)            P               Q
    n   0.48440858     Peri.  155.69213     +0.79314780     +0.60836281
    a   1.6056892      Node   166.71994     -0.57711046     +0.76569874
    e   0.3235458      Incl.    7.12265     -0.19457669     +0.20880647
    P   2.03           H   24.4           G   0.15           U   8
    Residuals in seconds of arc
    150910 F51  0.0   0.0     150911 H21  0.1-  0.0     150912 H21  0.2-  0.1-
    150910 F51  0.0   0.1+    150911 H21  0.3+  0.1-    150912 H21  0.2-  0.3-
    150910 F51  0.0   0.2-    150911 H21  0.0   0.3+    150912 H21  0.3+  0.3+
    
    Ephemeris:
    2015 RQ35                a,e,i = 1.61, 0.32, 7                   q = 1.0862
    Date    TT    R. A. (2000) Decl.     Delta      r     Elong.  Phase     V
    2015 08 13    22 37 14.5 +27 59 50   0.1013  1.0861   134.0    42.2    21.2
    ...
    2015 08 28    00 06 58.4 +14 56 37   0.1019  1.0947   144.4    32.5    21.0
    ...
    2015 09 05    00 39 54.6 +06 50 21   0.1116  1.1064   150.0    27.1    21.1
    ...
    2015 09 11    00 57 08.8 +01 24 49   0.1227  1.1183   153.7    23.5    21.2
    2015 09 12    00 59 27.9 +00 35 26   0.1249  1.1205   154.3    22.9    21.2
    2015 09 13    01 01 38.3 -00 12 27   0.1272  1.1228   154.8    22.4    21.2
    ...
    2015 09 19    01 11 58.1 -04 26 50   0.1424  1.1378   157.8    19.5    21.4
    ...
    2015 09 27    01 20 01.4 -08 38 51   0.1671  1.1612   160.4    16.8    21.7
    ...
    2015 10 12    01 24 50.6 -12 41 02   0.2269  1.2136   159.7    16.6    22.5
    
    A. U. Tomatic                (C) Copyright 2015 MPC           M.P.E.C. 2015-R63
    

    Read MPEC 2015-R62 Read MPEC 2015-R64


    MPEC number:

    Enter an MPEC number in one of the following forms:

    • 1997-B01 (the full form)
    • J97B01 (the packed version of the full form)
    • B01 (the abbreviated form)